TimeEDT,TemperatureF,Dew PointF,Humidity,Sea Level PressureIn,VisibilityMPH,Wind Direction,Wind SpeedMPH,Gust SpeedMPH,PrecipitationIn,Events,Conditions,WindDirDegrees,DateUTC
12:14 AM,32.0,24.8,75,30.09,10.0,WSW,4.6,-,N/A,,Overcast,240,2013-03-15 04:14:00
12:35 AM,32.0,24.8,75,30.08,10.0,WSW,6.9,-,N/A,,Overcast,250,2013-03-15 04:35:00
12:55 AM,32.0,26.6,80,30.09,10.0,WSW,5.8,-,N/A,,Overcast,250,2013-03-15 04:55:00
1:14 AM,32.0,26.6,80,30.09,10.0,WSW,8.1,-,N/A,,Scattered Clouds,250,2013-03-15 05:14:00
1:35 AM,30.2,28.4,93,30.07,10.0,WSW,8.1,-,N/A,,Clear,240,2013-03-15 05:35:00
2:14 AM,30.2,28.4,93,30.06,10.0,WSW,8.1,-,N/A,,Mostly Cloudy,240,2013-03-15 06:14:00
2:35 AM,30.2,28.4,93,30.06,10.0,WSW,10.4,-,N/A,,Overcast,250,2013-03-15 06:35:00
2:55 AM,32.0,30.2,93,30.04,10.0,WSW,10.4,-,N/A,,Overcast,250,2013-03-15 06:55:00
3:15 AM,32.0,30.2,93,30.03,7.0,WSW,10.4,-,N/A,,Overcast,250,2013-03-15 07:15:00
3:35 AM,32.0,30.2,93,30.03,7.0,WSW,12.7,-,N/A,,Overcast,250,2013-03-15 07:35:00
3:54 AM,32.0,30.2,93,30.02,7.0,WSW,11.5,-,N/A,,Overcast,250,2013-03-15 07:54:00
4:15 AM,32.0,30.2,93,30.01,7.0,WSW,6.9,-,N/A,,Mostly Cloudy,250,2013-03-15 08:15:00
4:34 AM,30.2,28.4,93,30.01,7.0,WSW,8.1,-,N/A,,Scattered Clouds,250,2013-03-15 08:34:00
4:55 AM,30.2,28.4,93,30.00,7.0,WSW,6.9,-,N/A,,Clear,250,2013-03-15 08:55:00
5:15 AM,30.2,28.4,93,29.99,7.0,WSW,5.8,-,N/A,,Clear,250,2013-03-15 09:15:00
5:34 AM,30.2,28.4,93,29.98,7.0,WSW,5.8,-,N/A,,Clear,240,2013-03-15 09:34:00
5:55 AM,30.2,28.4,93,29.97,5.0,SW,5.8,-,N/A,,Clear,230,2013-03-15 09:55:00
6:14 AM,28.4,28.4,100,29.96,5.0,SW,6.9,-,N/A,,Clear,220,2013-03-15 10:14:00
6:35 AM,28.4,28.4,100,29.95,5.0,SW,5.8,-,N/A,,Clear,230,2013-03-15 10:35:00
6:55 AM,28.4,28.4,100,29.95,5.0,SW,4.6,-,N/A,,Clear,230,2013-03-15 10:55:00
7:14 AM,28.4,28.4,100,29.95,4.0,SW,4.6,-,N/A,,Clear,230,2013-03-15 11:14:00
7:35 AM,28.4,28.4,100,29.94,4.0,SW,5.8,-,N/A,,Clear,230,2013-03-15 11:35:00
7:55 AM,28.4,28.4,100,29.95,5.0,WSW,4.6,-,N/A,,Clear,250,2013-03-15 11:55:00
8:14 AM,28.4,28.4,100,29.95,5.0,SW,6.9,-,N/A,,Clear,230,2013-03-15 12:14:00
8:35 AM,28.4,28.4,100,29.94,3.0,WSW,5.8,-,N/A,,Clear,240,2013-03-15 12:35:00
8:55 AM,30.2,28.4,93,29.94,3.0,SW,5.8,-,N/A,,Clear,230,2013-03-15 12:55:00
9:14 AM,30.2,28.4,93,29.93,4.0,WSW,5.8,-,N/A,,Clear,240,2013-03-15 13:14:00
9:35 AM,30.2,28.4,93,29.92,4.0,SW,6.9,-,N/A,,Clear,230,2013-03-15 13:35:00
9:55 AM,32.0,30.2,93,29.92,5.0,WSW,8.1,-,N/A,,Clear,240,2013-03-15 13:55:00
10:14 AM,32.0,30.2,93,29.92,5.0,WSW,6.9,-,N/A,,Clear,240,2013-03-15 14:14:00
10:35 AM,33.8,30.2,87,29.92,5.0,WSW,5.8,-,N/A,,Clear,250,2013-03-15 14:35:00
10:55 AM,33.8,30.2,87,29.92,7.0,West,5.8,-,N/A,,Clear,260,2013-03-15 14:55:00
11:14 AM,35.6,30.2,81,29.92,7.0,West,6.9,-,N/A,,Clear,280,2013-03-15 15:14:00
11:35 AM,35.6,30.2,81,29.92,7.0,West,6.9,-,N/A,,Clear,270,2013-03-15 15:35:00
11:54 AM,37.4,30.2,75,29.91,7.0,West,5.8,-,N/A,,Clear,280,2013-03-15 15:54:00
12:15 PM,37.4,32.0,81,29.91,7.0,WSW,4.6,-,N/A,,Clear,240,2013-03-15 16:15:00
12:35 PM,37.4,32.0,81,29.90,7.0,WSW,5.8,-,N/A,,Clear,250,2013-03-15 16:35:00
12:54 PM,39.2,32.0,75,29.89,7.0,Calm,Calm,-,N/A,,Clear,0,2013-03-15 16:54:00
1:15 PM,39.2,32.0,75,29.89,10.0,WSW,6.9,-,N/A,,Clear,250,2013-03-15 17:15:00
1:35 PM,41.0,33.8,76,29.88,7.0,Calm,Calm,-,N/A,,Clear,0,2013-03-15 17:35:00
1:54 PM,42.8,33.8,70,29.88,7.0,Calm,Calm,-,N/A,,Clear,0,2013-03-15 17:54:00
2:15 PM,42.8,33.8,70,29.88,10.0,West,8.1,-,N/A,,Clear,260,2013-03-15 18:15:00
2:35 PM,44.6,33.8,66,29.88,10.0,West,9.2,-,N/A,,Clear,270,2013-03-15 18:35:00
2:54 PM,44.6,33.8,66,29.87,10.0,WNW,6.9,-,N/A,,Clear,300,2013-03-15 18:54:00
3:15 PM,44.6,33.8,66,29.86,10.0,West,9.2,-,N/A,,Clear,260,2013-03-15 19:15:00
3:34 PM,44.6,33.8,66,29.85,10.0,West,6.9,-,N/A,,Clear,260,2013-03-15 19:34:00
3:55 PM,44.6,33.8,66,29.85,10.0,West,5.8,-,N/A,,Clear,280,2013-03-15 19:55:00
4:14 PM,44.6,33.8,66,29.85,10.0,West,8.1,-,N/A,,Clear,270,2013-03-15 20:14:00
4:35 PM,44.6,33.8,66,29.85,10.0,West,6.9,-,N/A,,Scattered Clouds,270,2013-03-15 20:35:00
4:55 PM,44.6,35.6,71,29.84,7.0,West,4.6,-,N/A,,Clear,280,2013-03-15 20:55:00
5:14 PM,44.6,35.6,71,29.84,7.0,WNW,4.6,-,N/A,,Light Drizzle,290,2013-03-15 21:14:00
5:35 PM,44.6,35.6,71,29.83,7.0,West,3.5,-,N/A,Rain,Light Rain,270,2013-03-15 21:35:00
5:55 PM,44.6,35.6,71,29.83,7.0,West,3.5,-,N/A,Rain,Light Rain,270,2013-03-15 21:55:00
6:14 PM,44.6,35.6,71,29.83,7.0,West,5.8,-,N/A,Rain,Light Rain,270,2013-03-15 22:14:00
6:35 PM,44.6,35.6,71,29.83,10.0,Calm,Calm,-,N/A,,Light Drizzle,0,2013-03-15 22:35:00
6:55 PM,42.8,37.4,81,29.83,7.0,NNW,3.5,-,N/A,Rain,Light Rain,340,2013-03-15 22:55:00
7:15 PM,41.0,37.4,87,29.83,5.0,North,6.9,-,N/A,Rain,Light Rain,360,2013-03-15 23:15:00
7:35 PM,39.2,37.4,93,29.83,5.0,North,3.5,-,N/A,Rain,Rain,10,2013-03-15 23:35:00
7:54 PM,39.2,37.4,93,29.83,5.0,Calm,Calm,-,N/A,Rain,Rain,0,2013-03-15 23:54:00
8:15 PM,39.2,37.4,93,29.82,3.0,Calm,Calm,-,N/A,Rain,Rain,0,2013-03-16 00:15:00
8:35 PM,37.4,37.4,100,29.82,2.5,Calm,Calm,-,N/A,Rain,Light Rain,0,2013-03-16 00:35:00
8:54 PM,37.4,37.4,100,29.83,2.5,Calm,Calm,-,N/A,,Drizzle,0,2013-03-16 00:54:00
9:15 PM,37.4,37.4,100,29.82,2.5,Calm,Calm,-,N/A,,Drizzle,0,2013-03-16 01:15:00
9:34 PM,37.4,37.4,100,29.82,2.5,NE,5.8,-,N/A,Rain,Rain,50,2013-03-16 01:34:00
9:55 PM,37.4,35.6,93,29.81,2.5,ENE,5.8,-,N/A,,Scattered Clouds,70,2013-03-16 01:55:00
10:15 PM,37.4,35.6,93,29.81,2.5,ENE,6.9,-,N/A,,Mostly Cloudy,60,2013-03-16 02:15:00
10:34 PM,37.4,35.6,93,29.80,2.5,ENE,8.1,-,N/A,,Light Drizzle,70,2013-03-16 02:34:00
10:55 PM,37.4,35.6,93,29.79,2.5,ENE,9.2,-,N/A,,Overcast,70,2013-03-16 02:55:00
11:14 PM,37.4,35.6,93,29.80,3.0,ENE,8.1,-,N/A,Rain,Light Rain,70,2013-03-16 03:14:00
11:35 PM,37.4,35.6,93,29.79,2.5,NE,6.9,-,N/A,,Overcast,50,2013-03-16 03:35:00
11:55 PM,37.4,35.6,93,29.79,2.0,NE,5.8,-,N/A,,Light Drizzle,50,2013-03-16 03:55:00